Location: Quebec
(46.8000°N, 71.2500°W)
Time: 00:05:20
(UTC-04:00)

Tiangong 2 - Pass Details

Date: 10 October 2017
Orbit: 388 x 392 km, 42.8° (Epoch: 17 October)

Event Time Altitude Azimuth Distance (km) Brightness Sun altitude
Exits shadow 05:33:39 14° 203° (SSW) 1,185 3.2 -14.9°
Maximum altitude 05:35:26 22° 160° (SSE) 909 3.1 -14.6°
Drops below altitude 10° 05:38:00 10° 107° (ESE) 1,424 5.1 -14.2°
Sets 05:40:21 0° 91° (E) 2,282 6.9 -13.8°
